Simultaneous Nadir Overpasses (SNOs) Predictions

Prediction of SNOs between AURA and NPP Satellite Orbit:

Table of predicted SNOs for the next 14.0 days since TLE Epoch: 3/12/2016
Index Date (AURA) Time (AURA) Lat,Lon (AURA) SZA (AURA ) Date (NPP) Time (NPP) Lat,Lon (NPP) SZA (NPP ) Distance(km) Time Diff (sec)
1 03/13/2016 10:35:58 -79.30, 96.61 84.30 03/13/2016 10:35:00 -79.30, 96.68 84.27 1.56 58
2 03/13/2016 11:25:16 79.60, -93.70 95.26 03/13/2016 11:25:35 79.61, -93.55 95.21 3.18 19
3 03/16/2016 02:52:24 -79.40,-146.87 85.51 03/16/2016 02:51:49 -79.40,-146.79 85.50 1.60 35
4 03/16/2016 03:41:45 79.58, 22.04 94.21 03/16/2016 03:42:28 79.57, 21.90 94.21 3.18 43
5 03/18/2016 19:08:53 -79.40, -30.98 86.59 03/18/2016 19:08:42 -79.40, -31.07 86.56 1.88 11
6 03/18/2016 19:58:11 79.69, 138.72 92.97 03/18/2016 19:59:17 79.69, 138.71 92.92 0.25 66
7 03/21/2016 10:35:58 79.25, -83.71 92.57 03/21/2016 10:34:53 79.25, -83.70 92.61 0.38 65
8 03/21/2016 11:25:19 -79.49, 85.55 87.80 03/21/2016 11:25:32 -79.49, 85.44 87.79 2.53 13
9 03/24/2016 02:52:22 79.40, 33.18 91.27 03/24/2016 02:51:41 79.41, 33.29 91.28 2.42 41




NCC Satellite Simultaneous Nadir Overpasses (SNOs) Prediction Service
